Lapse_Rate
6.5 6.5 6.4 5.7 5.7 5.6 5.3 5.2 5.4 5.4 5.1 5.0 4.6 5.4 5.6 5.7 5.7 5.7 5.9 5.8 5.8 5.6 5.6 5.8 5.7 5.8 6.0 5.9 5.7 5.6 5.5 5.5 5.7 5.8 5.8 5.7 5.7 5.7 5.6 5.9 5.9 5.9 5.9
6.3 6.2 6.0 5.8 5.5 5.4 5.4 5.5 5.4 5.4 5.1 4.6 5.0 5.1 5.5 5.6 5.7 6.0 6.0 6.0 5.8 5.6 5.7 5.8 5.8 5.8 5.8 5.9 6.0 5.7 5.7 5.7 5.6 5.7 5.7 5.7 5.8 5.6 5.7 5.7 5.7 5.8 5.8
6.0 5.7 5.8 5.7 5.6 5.5 5.5 5.0 5.2 5.1 4.8 4.5 4.9 5.2 5.4 5.6 6.0 6.0 6.1 6.0 6.0 5.9 5.9 5.7 5.6 5.7 5.8 5.9 5.9 6.0 5.8 5.7 5.6 5.7 5.8 5.7 5.7 5.7 5.8 5.7 5.7 5.7 5.8
5.6 5.3 5.5 5.4 5.5 5.4 5.2 5.1 4.9 4.7 4.8 5.2 5.2 5.5 5.7 6.0 5.9 6.0 6.0 6.1 6.1 6.0 5.9 5.8 5.8 5.8 5.8 5.8 5.9 5.8 5.7 5.8 5.7 5.7 5.8 5.7 5.6 5.6 5.6 5.6 5.6 5.6 5.5
5.0 5.4 5.1 5.2 5.3 5.2 5.0 4.9 4.9 5.1 5.2 5.2 5.4 5.5 5.7 6.0 6.1 6.1 6.1 6.1 6.1 6.0 6.0 5.9 5.8 5.9 5.8 5.7 5.9 5.8 5.5 5.7 5.7 5.8 5.9 5.8 5.7 5.7 5.7 5.7 5.7 5.7 5.6
5.3 5.5 5.1 5.1 5.4 4.8 5.2 5.3 5.1 5.2 5.2 5.4 5.5 5.6 6.1 6.1 6.2 6.3 6.2 6.1 6.1 6.0 5.9 5.9 5.8 5.8 5.9 6.0 5.9 5.9 6.0 5.8 5.7 5.5 5.4 5.3 5.7 5.8 5.9 5.9 5.9 5.8 5.7
5.6 5.3 5.4 5.4 5.2 5.2 5.1 5.3 5.4 5.5 5.6 5.6 6.0 6.2 6.0 6.0 6.1 6.1 6.0 6.2 6.2 6.1 6.0 5.9 5.9 5.9 5.8 5.9 6.0 5.9 6.0 6.0 5.9 5.9 5.7 5.5 5.3 5.4 5.8 5.7 5.7 5.8 5.6
5.5 5.5 5.3 5.3 5.7 5.5 5.4 5.7 5.9 5.8 5.8 5.8 5.8 5.9 5.9 6.0 5.9 6.2 6.1 6.1 6.2 6.1 6.1 6.1 5.9 5.9 6.0 5.9 5.9 5.9 6.0 6.1 6.0 6.0 6.0 5.9 5.9 6.0 5.9 5.8 5.6 5.7 5.8
5.8 5.6 5.3 5.3 5.7 5.8 5.9 5.9 5.6 5.5 5.7 5.9 5.6 5.7 5.8 5.9 6.1 6.2 6.1 6.2 6.2 6.1 6.1 6.1 6.1 6.0 5.9 5.8 5.9 5.9 6.0 6.0 6.0 6.1 6.0 5.9 5.9 5.8 5.9 6.0 6.0 5.9 5.8
6.0 6.0 5.8 5.8 5.6 5.7 5.7 5.7 5.6 5.3 5.5 6.0 5.9 5.9 6.0 5.9 6.0 6.3 6.3 6.3 6.2 6.2 6.0 6.0 6.0 6.0 6.0 5.9 6.0 5.9 5.9 6.0 6.0 6.0 5.9 5.9 5.9 5.8 5.8 5.9 6.0 6.1 6.1
6.5 6.3 6.1 5.8 5.8 5.8 5.6 5.6 5.5 5.5 5.5 5.8 5.8 5.8 5.9 6.0 6.2 6.2 6.2 6.1 6.0 6.0 6.1 6.1 6.2 6.1 6.1 5.9 5.9 5.9 5.9 5.9 5.9 5.9 5.9 5.9 5.8 5.9 5.9 5.9 5.9 5.9 5.9
6.2 6.0 5.9 5.8 5.6 5.5 5.5 5.6 5.4 5.3 5.4 5.7 5.8 5.9 6.1 6.1 6.1 6.1 6.1 6.0 6.1 6.0 6.0 6.1 6.1 6.1 6.2 6.0 6.0 5.8 5.7 5.7 5.7 5.8 5.9 6.1 6.0 6.0 5.8 5.8 5.8 5.9 6.0
5.7 5.7 5.6 5.5 5.3 5.5 5.3 5.4 5.3 5.2 5.5 5.6 5.8 5.9 5.9 5.9 5.9 5.9 6.0 5.9 5.9 5.9 5.9 6.0 5.9 6.0 6.1 5.9 5.8 5.8 5.9 6.0 5.9 6.0 5.9 5.9 5.9 5.9 5.8 5.8 5.8 5.6 5.5
6.1 5.6 5.6 5.3 5.2 5.3 5.2 5.3 5.2 5.4 5.4 5.5 5.7 5.9 5.9 5.9 5.8 5.8 5.9 5.9 6.0 5.9 6.0 5.9 6.1 6.0 5.9 5.9 5.7 5.7 5.8 5.8 5.7 5.8 5.8 5.9 5.9 5.9 5.9 5.9 6.0 6.1 6.2
6.2 5.9 5.6 5.4 5.0 5.1 5.1 5.2 5.2 5.3 5.4 5.6 5.7 5.8 5.8 5.8 5.7 5.7 5.8 5.9 5.9 5.8 5.9 5.8 5.8 5.8 5.8 5.7 5.8 5.8 5.8 5.8 5.8 5.8 5.9 6.1 6.1 6.0 5.9 6.0 6.1 6.2 6.1
6.0 6.1 5.9 5.7 5.4 5.2 5.1 5.1 5.2 5.3 5.5 5.5 5.7 5.6 5.8 5.7 5.7 5.7 5.8 5.8 5.7 5.6 5.7 5.6 5.7 5.8 5.8 5.7 5.6 5.8 5.8 5.8 5.8 5.9 6.0 6.2 6.1 6.0 6.0 6.0 6.1 6.3 6.4
5.7 5.7 5.8 5.7 5.6 5.4 5.2 5.2 5.4 5.4 5.4 5.5 5.6 5.5 5.6 5.7 5.6 5.7 5.7 5.5 5.5 5.5 5.4 5.6 5.6 5.7 5.6 5.6 5.6 5.7 5.8 5.8 5.9 6.0 6.2 6.1 6.1 6.0 5.9 5.9 6.0 6.0 6.1
5.9 5.9 5.5 5.7 5.6 5.5 5.4 5.3 5.2 5.2 5.2 5.2 5.2 5.2 5.3 5.4 5.3 5.4 5.4 5.3 5.2 5.3 5.3 5.5 5.5 5.5 5.6 5.5 5.5 5.7 5.7 5.7 5.8 6.0 6.0 6.0 6.0 5.9 5.9 6.0 6.0 5.9 5.9
5.9 5.9 5.8 5.7 5.7 5.7 5.8 5.5 5.4 5.4 5.3 5.1 5.0 5.1 5.1 5.3 5.2 5.2 5.1 5.2 5.1 5.3 5.6 5.6 5.6 5.6 5.6 5.5 5.6 5.7 5.8 5.9 6.0 6.0 6.0 6.0 6.0 6.0 6.0 6.0 5.9 5.9 5.9
6.1 6.0 5.9 5.9 5.9 5.8 5.6 5.6 5.5 5.4 5.2 4.9 5.0 5.0 5.0 5.0 5.2 5.2 5.1 5.2 5.4 5.4 5.4 5.5 5.4 5.4 5.5 5.6 5.6 5.7 5.8 5.9 6.0 6.0 6.1 6.1 6.0 6.0 6.0 6.0 5.9 5.9 5.9
6.4 6.3 6.2 6.0 6.0 5.9 5.9 5.7 5.5 5.2 5.0 5.0 5.0 5.0 5.1 5.1 5.2 5.2 5.2 5.2 5.1 5.2 5.2 5.2 5.2 5.3 5.5 5.6 5.7 5.7 5.8 5.8 5.8 5.9 5.9 5.8 5.8 5.9 5.9 5.8 5.8 5.8 5.8
6.3 6.2 6.1 6.0 5.9 5.8 5.7 5.5 5.1 4.9 5.0 5.2 5.2 5.2 5.1 5.1 5.1 5.1 5.0 5.0 5.1 5.1 5.1 5.1 5.1 5.2 5.4 5.6 5.8 5.9 5.8 5.9 5.8 5.8 5.8 5.7 5.7 5.7 5.5 5.5 5.4 5.3 5.3
6.2 6.2 6.1 5.9 5.7 5.6 5.4 5.2 5.1 5.3 5.4 5.4 5.1 5.0 5.0 5.0 5.1 5.1 5.0 4.9 4.9 4.9 4.9 4.9 5.0 5.1 5.3 5.6 5.7 5.7 5.8 6.0 6.0 6.0 5.9 5.7 5.5 5.3 5.2 5.2 5.2 5.1 5.1
6.3 5.8 5.6 5.5 5.4 5.4 5.2 5.2 5.1 5.0 5.0 4.8 4.7 4.9 5.0 5.1 5.0 4.9 4.8 4.7 4.7 4.7 4.7 4.8 4.9 5.1 5.3 5.3 5.4 5.4 5.5 5.5 5.7 5.9 6.3 6.0 5.8 5.7 5.5 5.3 5.2 5.1 5.1
6.2 6.1 5.7 5.4 5.1 5.0 5.0 5.1 4.9 4.7 4.6 4.7 4.8 4.9 4.8 4.7 4.6 4.6 4.6 4.6 4.5 4.5 4.5 4.6 4.8 5.0 5.1 5.1 5.1 5.3 5.2 5.1 5.0 5.0 5.1 5.5 5.4 5.3 5.3 5.3 5.3 5.1 4.9
6.5 6.4 6.1 5.6 5.3 5.0 4.9 4.9 4.9 4.7 4.5 4.4 4.4 4.5 4.5 4.4 4.3 4.3 4.3 4.2 4.2 4.3 4.3 4.5 4.6 4.9 4.9 5.0 5.1 5.0 4.9 4.8 4.8 4.7 4.7 4.7 4.9 5.4 5.5 5.4 5.1 4.8 4.5
Wind_Speed
1 10 13 7 2 8 8 3 10 10 13 15 17 19 20 21 22 21 21 20 19 18 19 20 19 19 20 20 20 21 21 15 14 16 17 16 14 14 13 14 13 14 15
5 13 14 2 7 11 12 11 15 15 16 17 20 22 22 23 22 22 21 22 21 22 22 23 22 23 19 20 21 21 21 20 14 17 18 17 17 15 14 12 13 13 13
6 13 12 10 5 13 7 21 24 21 21 19 22 23 21 21 21 19 19 18 18 19 21 21 21 20 20 20 21 20 20 17 15 14 15 14 14 16 14 13 13 12 12
8 6 20 18 16 22 22 26 26 25 21 20 20 20 20 21 20 19 19 19 20 20 20 19 19 20 21 21 22 22 22 19 15 15 15 15 13 15 16 17 15 12 10
5 5 19 17 16 18 21 21 21 20 19 20 20 20 21 20 19 18 19 19 19 20 19 19 19 20 21 22 22 23 23 21 18 18 18 17 14 13 15 16 16 17 15
8 5 18 15 13 16 17 17 18 18 19 18 18 20 21 18 19 18 19 18 18 19 19 19 19 20 20 21 22 23 23 22 19 19 18 19 15 17 20 19 18 16 16
5 5 12 12 12 15 15 15 17 17 18 18 18 18 19 18 19 18 17 18 18 19 19 18 19 19 20 21 21 22 23 21 18 16 18 19 19 20 20 20 19 20 19
3 7 9 12 13 14 15 15 16 16 17 17 17 17 18 18 18 18 17 18 18 19 19 18 18 18 19 20 20 21 22 22 19 16 16 16 20 19 18 17 19 19 18
3 6 9 8 12 13 14 15 16 16 17 17 16 17 18 18 18 18 17 18 18 18 18 18 18 18 18 19 20 20 20 21 20 16 15 15 20 18 17 18 17 17 17
4 4 7 9 11 10 12 15 15 15 17 18 16 17 18 18 17 18 18 17 17 17 17 17 18 18 18 20 20 20 20 20 20 16 16 17 18 17 17 17 17 17 16
4 5 6 8 11 14 13 14 14 14 17 17 16 15 17 18 18 18 18 16 17 17 16 17 18 18 18 18 19 19 19 18 16 15 15 18 18 16 16 15 15 15 15
6 5 5 8 10 11 10 14 15 12 16 18 18 17 18 18 16 15 16 16 19 16 19 19 18 18 18 15 15 15 15 17 14 13 13 17 16 16 16 16 15 15 14
7 5 6 7 10 11 10 13 11 14 16 17 17 16 16 17 17 16 17 17 17 17 17 16 17 17 18 15 14 17 17 16 16 15 15 17 17 16 16 15 14 13 13
8 7 6 9 10 12 13 10 12 11 13 14 15 16 16 13 12 13 14 15 16 15 14 16 14 16 17 16 14 14 14 15 15 14 13 17 16 15 15 14 13 14 17
10 8 8 8 9 11 11 10 11 11 12 14 15 14 16 13 9 12 12 14 14 13 14 13 13 12 12 12 12 11 11 12 13 12 14 15 16 16 15 15 16 17 17
11 10 7 7 11 13 9 10 10 14 14 14 15 13 16 15 13 11 9 10 12 13 14 12 9 7 7 8 7 9 9 11 12 14 15 16 16 16 15 17 18 18 18
11 10 10 8 11 10 11 13 12 14 14 12 14 13 14 15 14 12 10 9 10 13 11 13 10 10 6 9 4 9 10 12 11 12 16 16 16 19 19 19 20 19 19
11 12 9 9 9 8 9 10 10 14 14 13 14 13 14 15 14 12 9 8 11 13 11 8 5 4 5 5 5 5 6 10 10 13 15 15 15 16 17 20 20 20 21
14 13 11 9 10 9 10 11 12 14 13 14 14 13 14 14 13 14 11 10 10 10 9 4 3 3 4 6 5 4 4 4 6 9 12 12 15 15 14 17 20 22 23
14 14 12 10 11 11 9 9 8 8 8 12 12 12 13 13 13 13 11 9 8 6 4 3 5 4 2 5 4 5 4 3 4 7 6 11 11 14 15 14 17 18 20
14 15 15 14 13 11 8 7 4 4 3 3 8 12 13 13 12 12 9 8 8 4 4 5 2 4 4 7 3 3 3 3 3 4 6 5 8 9 11 12 15 12 13
17 16 15 15 14 11 9 4 4 4 2 3 8 10 11 12 11 10 9 6 7 4 5 4 5 2 3 4 3 1 3 3 3 3 3 3 5 10 8 15 15 12 14
18 18 16 15 15 12 11 6 5 4 5 3 2 3 5 9 9 10 9 8 6 5 3 3 3 4 3 3 5 3 2 2 3 3 4 3 8 3 11 12 14 16 15
18 16 16 16 16 13 14 9 14 6 6 4 3 3 5 7 8 9 9 7 6 6 4 2 3 2 2 2 2 3 1 1 2 4 2 4 1 8 6 10 13 15 16
17 18 16 16 15 14 14 12 9 6 3 3 4 6 5 6 8 8 7 6 6 5 3 3 2 3 2 2 1 1 1 2 3 3 5 6 7 5 6 7 13 15 14
13 14 14 15 13 13 12 11 11 10 7 6 4 4 4 3 4 6 6 6 5 3 2 1 1 2 1 1 1 2 2 2 2 3 4 6 10 7 8 9 9 14 16
Wind_Direction
275 308 307 291 183 159 154 214 167 124 113 114 106 99 95 89 80 73 70 64 65 74 66 68 69 64 57 53 50 43 41 50 66 61 59 59 62 70 66 61 55 53 51
313 306 319 137 187 169 174 158 131 124 114 113 101 90 81 76 73 69 63 58 53 54 59 60 56 57 55 49 46 44 43 48 61 62 60 53 53 56 57 56 57 58 56
320 307 9 102 142 152 159 144 106 103 98 91 83 82 83 80 75 73 70 68 67 62 57 56 54 53 51 50 44 42 42 45 53 58 51 46 49 49 50 51 50 47 44
311 322 59 84 69 77 72 75 84 80 85 88 88 88 83 78 76 74 72 69 66 64 63 60 56 52 49 48 48 43 40 45 56 54 46 39 34 40 39 37 38 32 33
1 21 70 61 69 73 76 78 87 94 93 86 85 86 83 81 78 77 73 69 67 64 63 61 56 51 48 47 47 46 40 44 46 43 32 25 25 44 41 35 28 24 26
42 358 77 89 89 84 91 96 96 100 98 94 91 87 86 85 83 75 73 71 70 67 61 60 54 51 49 48 46 43 42 41 41 43 33 18 15 39 40 38 32 25 18
86 41 108 106 113 107 104 103 104 101 97 95 91 90 89 87 83 79 76 73 69 67 63 57 53 52 50 47 46 43 41 41 36 34 28 16 10 30 32 25 21 22 22
108 71 86 119 114 112 115 113 105 101 101 99 93 92 90 85 83 78 72 69 68 63 62 57 54 52 48 46 46 43 41 39 35 29 22 15 19 25 22 22 17 12 12
147 97 98 96 120 120 116 112 108 106 100 97 93 91 89 85 80 78 70 68 64 62 58 57 53 51 49 47 45 43 42 41 37 28 22 13 14 16 13 11 11 8 6
136 130 128 112 100 92 104 107 107 110 102 98 95 92 88 83 83 80 69 68 66 64 60 55 53 49 46 42 42 39 38 34 31 27 15 12 10 9 7 6 3 1 360
148 165 152 130 119 111 99 104 108 109 106 101 98 93 88 79 70 67 75 74 69 64 62 58 53 50 45 39 40 38 37 30 27 19 15 11 7 5 1 359 357 356 355
167 171 166 152 141 117 109 111 108 106 107 102 102 99 89 84 77 76 75 69 65 60 55 51 49 46 43 32 28 32 34 30 23 18 9 12 12 7 1 359 354 352 350
169 160 171 162 145 126 123 118 119 109 100 98 102 100 96 91 81 71 65 57 55 49 44 43 37 34 32 28 19 22 19 22 17 14 7 16 16 11 6 359 356 355 352
170 169 171 156 140 139 132 133 123 106 105 99 103 108 101 90 78 70 66 61 57 54 51 41 39 31 28 24 20 13 15 13 13 16 11 21 23 22 18 15 14 17 18
178 176 175 157 143 144 131 132 115 103 103 107 104 105 109 98 88 81 72 67 58 54 51 41 37 27 26 11 11 7 6 9 19 18 17 28 35 30 27 24 22 20 17
179 178 165 161 149 145 132 130 125 119 114 109 105 107 103 103 96 87 79 68 56 55 55 48 39 31 22 5 347 357 4 13 22 28 29 34 39 33 35 31 21 14 6
179 168 169 160 153 143 142 139 131 128 125 112 104 103 106 103 96 90 77 65 59 57 55 43 28 32 19 5 349 351 9 5 18 35 28 29 34 32 29 28 15 6 359
165 169 166 164 156 140 139 135 133 131 123 116 114 110 106 103 105 95 86 68 60 55 45 44 16 19 17 4 340 342 359 3 17 40 22 33 34 26 28 17 17 10 2
173 166 167 154 156 146 137 133 132 133 127 131 125 114 108 102 99 92 83 75 70 59 44 30 25 38 17 351 334 335 355 5 23 19 14 27 25 34 26 17 15 5 352
172 168 162 159 155 148 134 117 107 111 126 131 124 118 115 110 107 103 96 85 79 71 46 39 45 23 38 340 332 339 350 11 81 11 21 7 29 27 21 21 13 349 348
172 167 168 163 164 152 147 144 138 150 143 114 133 135 131 127 122 116 107 91 74 68 57 45 34 27 10 356 351 6 354 54 88 29 9 16 22 16 15 13 351 335 331
174 176 171 170 165 162 160 143 137 140 140 143 151 144 138 135 127 114 107 89 75 73 56 55 43 30 13 6 21 258 9 343 333 357 356 21 9 1 359 344 334 328 326
183 178 172 170 167 165 155 129 108 87 94 121 152 129 146 133 121 116 110 100 85 81 69 70 53 60 43 4 34 74 8 343 329 323 342 2 344 351 333 327 320 320 317
185 173 171 167 169 168 161 152 160 159 161 173 154 139 124 126 123 123 114 97 90 79 65 31 57 83 97 61 9 43 105 217 324 315 277 291 356 324 313 315 312 309 309
175 173 168 164 168 168 169 164 160 138 131 124 125 129 124 111 113 113 104 96 82 71 67 58 34 43 75 103 101 7 292 257 251 258 300 312 314 314 304 305 306 300 296
167 167 162 162 164 160 164 161 160 150 143 135 136 137 129 109 98 103 96 90 78 68 59 52 48 26 34 199 187 192 199 212 218 236 272 286 282 307 319 306 304 304 303